Estación de San Julian
Ultimos registro cada 15 minutos 21
| N° | Estación | Fecha / Hora | Temperatura | Humedad | Lluvia | Velocidad | Dirección | Radiación | Presion |
| 21 | San Julian | 09-05-2026 05:00 | 8,3 | 85,4 | 0 | 0 | 248 | 0,6 | 982,6 |
| 20 | San Julian | 09-05-2026 04:45 | 8,5 | 84,2 | 0 | 0 | 247 | 0,6 | 982,6 |
| 19 | San Julian | 09-05-2026 04:30 | 8,4 | 84,1 | 0 | 0 | 258 | 0,6 | 982,6 |
| 18 | San Julian | 09-05-2026 04:15 | 8,3 | 82,2 | 0 | 0 | 267 | 0,6 | 982,5 |
| 17 | San Julian | 09-05-2026 04:00 | 6,4 | 78,4 | 0 | 0 | 270 | 0,6 | 982,4 |
| 16 | San Julian | 09-05-2026 03:45 | 7,2 | 77,9 | 0 | 0 | 270 | 0,6 | 982,6 |
| 15 | San Julian | 09-05-2026 03:30 | 7,5 | 70,1 | 0 | 0 | 271 | 0,6 | 982,5 |
| 14 | San Julian | 09-05-2026 03:15 | 8,2 | 66 | 0 | 0 | 271 | 0,6 | 982,5 |
| 13 | San Julian | 09-05-2026 03:00 | 8,6 | 68,7 | 0 | 0 | 271 | 0,6 | 982,4 |
| 12 | San Julian | 09-05-2026 02:45 | 6,2 | 74,2 | 0 | 0 | 271 | 0,6 | 982,6 |
| 11 | San Julian | 09-05-2026 02:30 | 5,3 | 76,8 | 0 | 0 | 271 | 0,6 | 982,7 |
| 10 | San Julian | 09-05-2026 02:15 | 5,5 | 73,8 | 0 | 0 | 271 | 0,6 | 982,8 |
| 9 | San Julian | 09-05-2026 02:00 | 7,1 | 70,5 | 0 | 0 | 271 | 0,6 | 982,9 |
| 8 | San Julian | 09-05-2026 01:45 | 8,2 | 71,3 | 0 | 0 | 271 | 0,6 | 983 |
| 7 | San Julian | 09-05-2026 01:30 | 6,7 | 74,7 | 0 | 0 | 271 | 0,6 | 983,1 |
| 6 | San Julian | 09-05-2026 01:15 | 6,9 | 72 | 0 | 0 | 271 | 0,6 | 983,3 |
| 5 | San Julian | 09-05-2026 01:00 | 6,8 | 69,3 | 0 | 0 | 271 | 0,6 | 983,4 |
| 4 | San Julian | 09-05-2026 00:45 | 8,9 | 65,2 | 0 | 0 | 271 | 0,6 | 983,3 |
| 3 | San Julian | 09-05-2026 00:30 | 11 | 62,9 | 0 | 0 | 271 | 0,6 | 983,5 |
| 2 | San Julian | 09-05-2026 00:15 | 10,8 | 62,1 | 0 | 0 | 271 | 0,6 | 983,7 |
| 1 | San Julian | 09-05-2026 00:00 | 11 | 60,1 | 0 | 0 | 271 | 0,6 | 983,7 |